Regional Weather Roundup
Issued by NWS

Home | Current Version | Previous Version | Text Only | Print | Product List | Glossary On
Versions: 1 2 3 4 5 6 7 8 9 10 11 12 13 14 15 16 17 18 19 20 21 22 23 24 25 26 27 28 29 30 31 32 33 34 35 36 37 38 39 40 41 42 43 44 45 46 47 48 49 50
000
ASUS43 KDTX 281410
RWRMI
MICHIGAN HOURLY REGIONAL WEATHER ROUNDUP
NATIONAL WEATHER SERVICE DETROIT/PONTIAC MI
900 AM EST SAT FEB 28 2015

NOTE: "FAIR" INDICATES FEW OR NO CLOUDS BELOW 12,000 FEET WITH NO
SIGNIFICANT WEATHER AND/OR OBSTRUCTION TO VISIBILITY.

MIZ047>049-052>055-059>063-066>070-074>076-081>083-281500-
SOUTHEAST LOWER MICHIGAN

CITY           SKY/WX    TMP DP  RH WIND       PRES   REMARKS
ADRIAN         MOSUNNY   -4  -8  83 CALM      30.76R
ALMA           SUNNY      5  -1  76 S7        30.71R
ANN ARBOR      SUNNY      0  -2  91 CALM      30.74R
BAD AXE        SUNNY      5  -1  77 SW7       30.71R
DETROIT CITY   SUNNY     10   0  63 SW3       30.76R
DETROIT        MOSUNNY    4  -2  76 CALM      30.77R
FLINT          SUNNY      8  -2  63 SW5       30.73R
GROSSE ILE     SUNNY      1  -2  85 CALM      30.76R
HILLSDALE      MOSUNNY    1  -4  80 CALM      30.69R HAZE
HOWELL         SUNNY      4  -3  71 CALM      30.71R

CITY           SKY/WX    TMP DP  RH WIND       PRES   REMARKS
JACKSON        MOSUNNY    1  -2  87 CALM      30.71R
LAMBERTVILLE   MOSUNNY    9   0  66 CALM      30.76R
LANSING        MOSUNNY    4  -2  76 S3        30.72R
LAPEER         NOT AVBL
MASON          MOSUNNY    1  -4  79 CALM      30.71R
MONROE         MOSUNNY    1  -2  85 CALM      30.75R
MT. CLEMENS    MOSUNNY   -1  -7  78 CALM      30.73R
PONTIAC        MOSUNNY    1  -4  79 CALM      30.71R
PORT HOPE        N/A      9  -1  64 SW7       30.68R
PORT HURON     MOSUNNY    3   0  85 S3        30.75R
TRI CITIES     SUNNY      6  -1  73 SW7       30.72R
YPSILANTI      SUNNY      1  -2  87 VRB5      30.75R
$$
MIZ043>046-050>051-056>058-064>065-071>073-077>080-281500-
SOUTHWEST LOWER MICHIGAN

CITY           SKY/WX    TMP DP  RH WIND       PRES   REMARKS
BATTLE CREEK   MOSUNNY   -1  -5  82 SW5       30.71R
BENTON HARBOR  MOSUNNY    1  -3  83 S6        30.74R
BIG RAPIDS     MOSUNNY   -6  -9  86 CALM      30.64R
COLDWATER      MOSUNNY  -11 -16  76 CALM      30.72R
HOLLAND        SUNNY      2  -3  80 S7        30.72R
GRAND RAPIDS   MOSUNNY    3  -2  79 S3        30.70R
KALAMAZOO      MOSUNNY    0  -5  79 S8        30.72R
MARSHALL       MOSUNNY   -7 -11  81 CALM      30.71R
MUSKEGON       PTSUNNY    8   2  76 SE8       30.70R
$$
MIZ016>042-281500-
NORTHERN LOWER MICHIGAN

CITY           SKY/WX    TMP DP  RH WIND       PRES   REMARKS
ALPENA         SUNNY     10   2  69 SW7       30.63R
BEAVER ISLAND  SUNNY     11   4  73 SW7       30.58S
BELLAIRE       SUNNY     -2  -6  83 CALM      30.64R
CADILLAC       SUNNY    -10 -17  73 CALM      30.57R
CHARLEVOIX     SUNNY      9   3  77 CALM      30.63R
FRANKFORT      SUNNY     17   8  67 W9        30.63R
GAYLORD        SUNNY      2   1  96 CALM      30.55R
GRAYLING       SUNNY    -10 -15  76 CALM      30.60R
HARBOR SPRINGS SUNNY      9   2  72 CALM      30.59R
HOUGHTON LAKE  SUNNY      3   0  87 SW5       30.61R
MANISTEE       PTSUNNY   -4  -9  77 E3        30.64S
OSCODA         SUNNY      5   0  79 SW9       30.66S
PELLSTON       SUNNY      3  -1  83 SW3       30.59R
TRAVERSE CITY  MOSUNNY    3   2  95 CALM      30.62R
$$
MIZ007>008-015-281500-
EASTERN UPPER MICHIGAN

CITY           SKY/WX    TMP DP  RH WIND       PRES   REMARKS
KINROSS        MOSUNNY    7   3  85 SW5       30.56R
MACKINAC ISLAN MOSUNNY   10   3  75 SW7       30.57R
NEWBERRY       MOSUNNY    1  -5  75 SW8       30.53R
S. S. MARIE    PTSUNNY   -5  -7  91 E3        30.56R
$$
MIZ004>006-011>014-085-281500-
CENTRAL UPPER MICHIGAN

CITY           SKY/WX    TMP DP  RH WIND       PRES   REMARKS
MANISTIQUE     MOSUNNY    8  -1  67 SW3       30.56R
ESCANABA       MOSUNNY    1   0  92 SW6       30.60R
MENOMINEE      SUNNY      3  -4  72 SW7       30.61R
SAWYER-GWINN   SUNNY     -2  -9  71 SW5       30.49R
$$
MIZ001>003-009>011-084-281500-
WESTERN UPPER MICHIGAN

CITY           SKY/WX    TMP DP  RH WIND       PRES   REMARKS
IRON MOUNTAIN  MOSUNNY   -2  -7  79 CALM      30.52R
HOUGHTON       SUNNY      3  -6  66 SW6       30.44R
COPPER HARBOR    N/A     12   0  58 VRB3      30.46R
IRONWOOD       SUNNY      0  -6  78 S7        30.44S
$$

ABBREVIATIONS USED IN REMARKS
   TC - TEMPERATURE IN CELSIUS
  WCI - WIND CHILL INDEX
   HX - HEAT INDEX
  VSB - VISIBILITY




USA.gov is the U.S. government's official web portal to all federal, state and local government web resources and services.